Weather in Gorodishche

Ukraine / Cherkassi District     49°17′32″N   31°27′28″E
temp.,
°C
wind,
m/s
gust,
m/s
humid.,
%
clouds,
%
prec.,
mm/h
press.,
hPa
HPBL,
m
23 september, thu
thu2300:00+6nw3588100 0.0 1015359
03:00+6nw3691100 0.1 1015371
06:00+6nw3693100 0.1 1015300
09:00+7nw458399 0.1 1015581
12:00+8nw5680100 0.1 1015709
15:00+9nw5575100 0.2 1015923
18:00+8wnw3575100 0.1 1015533
21:00+7w3684100 0.1 1015358
24 september, fri
fri2400:00+7sw3486100 0.0 1014193
03:00+8ssw598199 0.0 1012371
06:00+8ssw61380100 0.0 1009517
09:00+8ssw91788100 1.6 1007675
12:00+8sw91892100 6.5 1005888
15:00+13wsw8127347 8.1 10031324
18:00+12wnw61269100 0.9 1004635
21:00+10w51381100 0.9 1006341
25 september, sat
sat2500:00+10wnw71383100 0.3 1007668
03:00+10wnw71485100 1.0 1007732
06:00+9wnw7148831 0.1 1008691
09:00+9wnw71286100 0.1 1011743
12:00+13wnw796761 0.0 10131063
15:00+15nw795048 0.1 10131640
18:00+12w4969100 0.0 1015559
21:00+11sw397993 0.0 1016225
26 september, sun
sun2600:00+14w51282100 0.1 1016482
03:00+14w61386100 0.2 1015544
06:00+14wnw61387100 0.1 1016578
09:00+15nw611761 0.2 10171100
12:00+17nw710512 0.0 10181467
15:00+18nw79450 0.0 10181680
18:00+16n59530 0.0 1019586
21:00+11n410770 0.0 1021352
27 september, mon
mon2700:00+8nnw36870 0.0 1022143
03:00+7nnw37875 0.0 1022173
06:00+6n35890 0.0 1023109
09:00+9nne46720 0.0 1023457
12:00+14nne455040 0.0 10231410
15:00+15nne554482 0.0 10231735
18:00+13nne465184 0.0 1023454
21:00+12ne355293 0.0 1024187